Location: STAR School
(35.3054°N, 111.2976°W)
Time: 07:05:38
(UTC-07:00)

OTV 5 (USA 277) - Visible Passes

Search period start: 17 February 2019 00:00
Search period end: 27 February 2019 00:00
Orbit: 342 x 346 km, 54.5° (Epoch: 09 February)

Date Brightness Start Highest point End Pass type
(mag) Time Alt. Az. Time Alt. Az. Time Alt. Az.
17 Feb ? 05:13:55 24° E 05:13:55 24° E 05:15:27 10° ESE visible
18 Feb ? 05:37:30 31° S 05:37:30 31° S 05:39:15 10° SSE visible
20 Feb ? 19:35:37 10° S 19:35:58 12° S 19:35:58 12° S visible
21 Feb ? 19:58:30 10° SW 19:59:51 24° SW 19:59:51 24° SW visible
22 Feb ? 18:48:07 10° S 18:50:18 20° SE 18:52:07 12° E visible
22 Feb ? 20:22:51 10° W 20:23:36 14° W 20:23:36 14° W visible
23 Feb ? 19:10:56 10° SW 19:13:47 87° NW 19:15:45 18° NE visible
24 Feb ? 19:35:13 10° W 19:37:32 22° NW 19:39:14 14° N visible
26 Feb ? 18:47:35 10° W 18:49:57 23° NW 18:52:19 10° NNE visible
